Hurricane Symbol View the latest observations near Atlantic Remnants Of Alberto.

Station NTBC1 - 9411340 - Santa Barbara, CA Image indicating link to RSS feed of recent meteorological observations for station NTBC1


Conditions at NTBC1 as of
(2:36 pm PDT)
2136 GMT on 06/20/2024:
     

Click on the graph icon in the table below to see a time series plot of the last five days of that observation.

5-day plot - Wind Direction Wind Direction (WDIR):SSW ( 210 deg true )
5-day plot - Wind Speed Wind Speed (WSPD): 4.1 kts
5-day plot - Wind Gust Wind Gust (GST): 5.1 kts
5-day plot - Atmospheric Pressure Atmospheric Pressure (PRES):29.83 in
5-day plot - Air Temperature Air Temperature (ATMP): 63.7 °F
5-day plot - Wind Speed at 10 Meters Wind Speed at 10 meters (WSPD10M): 3.9 kts
5-day plot - Wind Speed at 20 Meters Wind Speed at 20 meters (WSPD20M): 3.9 kts
5-day plot -  Wind Speed, Wind Gust and Atmospheric Pressure Combined plot of Wind Speed, Gust, and Air Pressure
NOS Water Level Observation Network Water Level
Previous observations
TIME
(PDT)
5-day plot - Wind Direction
WDIR
 
5-day plot - Wind Speed
WSPD
kts
5-day plot - Wind Gust
GST
kts
5-day plot - Wave Height
WVHT
ft
5-day plot - Dominant Wave Period
DPD
sec
5-day plot - Average Wave Period
APD
sec
5-day plot - Mean Wave Direction
MWD
 
5-day plot - Atmospheric Pressure
PRES
in
5-day plot - Pressure Tendency
PTDY
in
5-day plot - Air Temperature
ATMP
°F
5-day plot - Water Temperature
WTMP
°F
5-day plot - Dew Point
DEWP
°F
5-day plot - Salinity
SAL
psu
5-day plot - Visibility
VIS
nmi
5-day plot - Tide (above MLLW)
TIDE
ft
2024-06-20 02:30 pmSSE 4.1 5.1----29.83- 64.4-----
2024-06-20 02:24 pmSSW 4.1 5.1----29.83- 63.7-----
2024-06-20 02:18 pmSSW 5.1 6.0----29.83- 63.3-----
2024-06-20 02:12 pm SW 6.0 8.0----29.84- 63.3-----
2024-06-20 02:06 pm SW 6.0 8.0----29.84- 63.0-----
2024-06-20 02:00 pm SW 6.0 7.0----29.84+0.00 63.5-----
2024-06-20 01:54 pm SW 6.0 8.0----29.84- 62.8-----
2024-06-20 01:48 pm SW 6.0 7.0----29.84- 62.2-----
2024-06-20 01:42 pm SW 5.1 7.0----29.84- 61.3-----
2024-06-20 01:36 pmSSW 6.0 7.0----29.84- 60.8-----
2024-06-20 01:30 pmSSW 6.0 7.0----29.84- 61.0-----
2024-06-20 01:24 pmSSW 7.0 7.0----29.84- 60.8-----
2024-06-20 01:18 pmSSW 7.0 7.0----29.85- 60.1-----
2024-06-20 01:12 pmSSW 6.0 7.0----29.84- 59.7-----
2024-06-20 01:06 pmSSW 6.0 7.0----29.84- 59.9-----
2024-06-20 01:00 pmSSW 7.0 8.0----29.84+0.00 59.0-----
2024-06-20 12:54 pmSSW 7.0 8.0----29.84- 59.7-----
2024-06-20 12:48 pmSSW 6.0 7.0----29.85- 59.9-----
2024-06-20 12:42 pmSSW 6.0 7.0----29.84- 59.7-----
2024-06-20 12:36 pm S 5.1 7.0----29.84- 59.9-----
2024-06-20 12:30 pmSSW 6.0 7.0----29.85- 59.9-----
2024-06-20 12:24 pmSSW 7.0 8.0----29.85- 60.3-----
2024-06-20 12:18 pmSSW 8.0 8.9----29.85- 61.0-----
2024-06-20 12:12 pmSSW 6.0 7.0----29.85- 61.5-----
2024-06-20 12:06 pmSSW 6.0 7.0----29.85- 61.5-----
2024-06-20 12:00 pmSSW 6.0 7.0----29.85+0.02 61.7-----
2024-06-20 11:54 amSSW 7.0 8.0----29.85- 62.1-----
2024-06-20 11:48 amSSW 7.0 8.0----29.85- 61.7-----
2024-06-20 11:42 am SW 6.0 7.0----29.85- 61.7-----
2024-06-20 11:36 amSSW 4.1 5.1----29.85- 62.2-----
2024-06-20 11:30 am S 2.9 4.1----29.85- 62.8-----
2024-06-20 11:24 am S 2.9 4.1----29.85- 63.3-----
2024-06-20 11:18 am S 2.9 4.1----29.85- 62.6-----
2024-06-20 11:12 amSSE 2.9 4.1----29.85- 62.6-----
2024-06-20 11:06 am S 1.9 4.1----29.85- 62.6-----
2024-06-20 11:00 am S 2.9 5.1----29.84+0.01 61.7-----
2024-06-20 10:54 am S 2.9 4.1----29.85- 62.1-----
2024-06-20 10:48 am S 2.9 4.1----29.84- 61.9-----
2024-06-20 10:42 am S 2.9 4.1----29.85- 62.2-----
2024-06-20 10:36 amSSE 2.9 4.1----29.84- 62.6-----
2024-06-20 10:30 am S 1.9 4.1----29.84- 62.6-----
2024-06-20 10:24 am S 2.9 4.1----29.84- 62.4-----
2024-06-20 10:18 am S 2.9 4.1----29.84- 62.2-----
2024-06-20 10:12 am S 2.9 5.1----29.84- 62.2-----
2024-06-20 10:06 am S 2.9 4.1----29.84- 61.7-----
2024-06-20 10:00 am S 2.9 4.1----29.84+0.02 61.9-----
2024-06-20 09:54 am S 2.9 5.1----29.85- 62.1-----
2024-06-20 09:48 amSSE 4.1 5.1----29.85- 62.1-----
2024-06-20 09:42 am SE 1.9 4.1----29.84- 63.7-----
2024-06-20 09:36 amSSE 1.9 4.1----29.84- 63.0-----
2024-06-20 09:30 am SE 4.1 5.1----29.84- 61.9-----
2024-06-20 09:24 am SE 2.9 5.1----29.84- 61.9-----
2024-06-20 09:18 am SE 2.9 5.1----29.84- 61.5-----
2024-06-20 09:12 am SE 4.1 5.1----29.84- 61.3-----
2024-06-20 09:06 am SE 4.1 5.1----29.83- 61.3-----
2024-06-20 09:00 am SE 4.1 5.1----29.83+0.03 61.7-----
2024-06-20 08:54 amESE 1.9 5.1----29.83- 64.0-----
2024-06-20 08:48 am E 4.1 5.1----29.83- 62.1-----
2024-06-20 08:42 am E 5.1 6.0----29.83- 61.9-----
2024-06-20 08:36 am E 4.1 5.1----29.83- 61.9-----
2024-06-20 08:30 amESE 2.9 4.1----29.83- 62.4-----
2024-06-20 08:24 amESE 2.9 4.1----29.83- 61.9-----
2024-06-20 08:18 amESE 2.9 2.9----29.83- 63.0-----
2024-06-20 08:12 amESE 1.9 2.9----29.83- 62.6-----
2024-06-20 08:06 am- 0.0 1.9----29.83- 62.1-----
2024-06-20 08:00 am NE 1.0 4.1----29.83+0.04 61.9-----
2024-06-20 07:54 am NE 1.9 2.9----29.83- 61.5-----
2024-06-20 07:48 amNNE 1.9 4.1----29.83- 61.9-----
2024-06-20 07:42 amNNE 2.9 4.1----29.83- 61.5-----
2024-06-20 07:36 amENE 4.1 5.1----29.82- 61.0-----
2024-06-20 07:30 amENE 4.1 5.1----29.82- 61.0-----
2024-06-20 07:24 am NE 4.1 5.1----29.82- 60.8-----
2024-06-20 07:18 am NE 5.1 6.0----29.82- 60.6-----
2024-06-20 07:12 am NE 5.1 6.0----29.82- 60.4-----
2024-06-20 07:06 am NE 5.1 6.0----29.82- 60.6-----
2024-06-20 07:00 am NE 5.1 6.0----29.82+0.02 60.4-----
2024-06-20 06:54 am NE 4.1 5.1----29.82- 60.3-----
2024-06-20 06:48 am NE 4.1 6.0----29.82- 59.9-----
2024-06-20 06:42 am NE 4.1 6.0----29.82- 59.7-----
2024-06-20 06:36 am NE 4.1 5.1----29.81- 59.5-----
2024-06-20 06:30 am NE 4.1 6.0----29.81- 59.4-----
2024-06-20 06:24 am NE 4.1 5.1----29.81- 59.2-----
2024-06-20 06:18 am NE 4.1 5.1----29.81- 59.0-----
2024-06-20 06:12 am NE 4.1 5.1----29.81- 58.8-----
2024-06-20 06:06 am N 2.9 4.1----29.81- 58.3-----
2024-06-20 06:00 am N 4.1 4.1----29.80+0.01 58.3-----
2024-06-20 05:54 am N 1.9 4.1----29.80- 57.9-----
2024-06-20 05:48 am N 2.9 4.1----29.80- 57.9-----
2024-06-20 05:42 amNNE 2.9 4.1----29.80- 58.1-----
2024-06-20 05:36 am N 1.9 4.1----29.80- 57.9-----
2024-06-20 05:30 am N 2.9 7.0----29.80- 58.1-----
2024-06-20 05:24 am NE 4.1 6.0----29.80- 59.2-----
2024-06-20 05:18 am NE 4.1 6.0----29.79- 58.5-----
2024-06-20 05:12 amNNE 2.9 2.9----29.79- 57.7-----
2024-06-20 05:06 am N 1.9 4.1----29.79- 57.7-----
2024-06-20 05:00 amNNE 4.1 4.1----29.79-0.01 57.9-----
2024-06-20 04:54 am N 2.9 4.1----29.79- 57.7-----
2024-06-20 04:48 amNNE 2.9 2.9----29.79- 57.9-----
2024-06-20 04:42 amNNE 1.9 2.9----29.79- 58.6-----
2024-06-20 04:36 am NE 1.9 4.1----29.79- 59.2-----
2024-06-20 04:30 am NE 1.9 4.1----29.79- 59.0-----
2024-06-20 04:24 amENE 2.9 5.1----29.79- 58.8-----
2024-06-20 04:18 am NE 2.9 4.1----29.79- 58.6-----
2024-06-20 04:12 am N 2.9 4.1----29.80- 58.6-----
2024-06-20 04:06 am N 2.9 4.1----29.80- 58.5-----
2024-06-20 04:00 am N 4.1 4.1----29.80-0.03 58.1-----
2024-06-20 03:54 amNNE 2.9 4.1----29.80- 58.8-----
2024-06-20 03:48 am NE 1.9 1.9----29.80- 58.8-----
2024-06-20 03:42 amNNE 1.9 4.1----29.80- 58.8-----
2024-06-20 03:36 am NE 2.9 4.1----29.79- 59.0-----
2024-06-20 03:30 amNNE 2.9 4.1----29.79- 58.3-----
2024-06-20 03:24 amNNE 4.1 6.0----29.79- 57.6-----
2024-06-20 03:18 amNNE 4.1 5.1----29.80- 58.5-----
2024-06-20 03:12 am NE 2.9 4.1----29.80- 58.1-----
2024-06-20 03:06 amNNE 2.9 4.1----29.80- 58.3-----
2024-06-20 03:00 amNNE 2.9 2.9----29.79-0.04 58.3-----
2024-06-20 02:54 am N 1.9 2.9----29.80- 58.1-----
2024-06-20 02:48 am NE 2.9 2.9----29.80- 58.3-----
2024-06-20 02:42 am N 1.9 4.1----29.80- 58.3-----
2024-06-20 02:36 am N 2.9 2.9----29.80- 58.3-----
2024-06-20 02:30 am N 2.9 4.1----29.80- 58.3-----
2024-06-20 02:24 amNNE 1.9 2.9----29.80- 58.3-----
2024-06-20 02:18 amNNE 2.9 2.9----29.80- 58.3-----
2024-06-20 02:12 am N 1.9 1.9----29.80- 58.3-----
2024-06-20 02:06 am N 1.9 2.9----29.80- 58.5-----
2024-06-20 02:00 amNNE 1.9 2.9----29.80-0.03 58.5-----
2024-06-20 01:54 am N 1.9 1.9----29.80- 58.5-----
2024-06-20 01:48 amNNE 1.9 2.9----29.81- 58.5-----
2024-06-20 01:42 am N 1.9 2.9----29.81- 58.6-----
2024-06-20 01:36 amNNE 1.9 2.9----29.81- 58.5-----
2024-06-20 01:30 amNNE 2.9 4.1----29.81- 58.8-----
2024-06-20 01:24 amNNE 2.9 4.1----29.82- 58.6-----
2024-06-20 01:18 amNNE 1.9 2.9----29.82- 58.6-----
2024-06-20 01:12 am NE 2.9 2.9----29.82- 58.6-----
2024-06-20 01:06 am N 1.9 2.9----29.82- 58.8-----
2024-06-20 01:00 amNNE 2.9 2.9----29.82-0.01 58.6-----
2024-06-20 12:54 amNNE 1.9 2.9----29.83- 59.2-----
2024-06-20 12:48 amNNE 1.9 1.9----29.83- 59.2-----
2024-06-20 12:42 am N 1.9 1.9----29.83- 59.2-----
2024-06-20 12:36 am- 0.0 1.9----29.83- 59.0-----
2024-06-20 12:30 am- 0.0 1.0----29.83- 59.2-----
2024-06-20 12:24 am N 1.9 1.9----29.83- 59.4-----
2024-06-20 12:18 am NE 1.0 1.9----29.83- 59.7-----
2024-06-20 12:12 amENE 1.9 2.9----29.83- 59.7-----
2024-06-20 12:06 amENE 1.9 4.1----29.83- 59.7-----
2024-06-20 12:00 amENE 1.9 4.1----29.83+0.00 59.7-----
2024-06-19 11:54 pmENE 2.9 4.1----29.83- 59.7-----
2024-06-19 11:48 pmENE 2.9 4.1----29.83- 59.9-----
2024-06-19 11:42 pmENE 1.9 4.1----29.84- 59.9-----
2024-06-19 11:36 pmENE 2.9 4.1----29.84- 59.9-----
2024-06-19 11:30 pmENE 2.9 5.1----29.84- 59.9-----
2024-06-19 11:24 pmENE 2.9 4.1----29.84- 59.9-----
2024-06-19 11:18 pmENE 2.9 4.1----29.84- 59.9-----
2024-06-19 11:12 pmENE 2.9 5.1----29.84- 59.9-----
2024-06-19 11:06 pm NE 4.1 5.1----29.84- 59.9-----
2024-06-19 11:00 pmENE 2.9 5.1----29.84+0.01 59.9-----
2024-06-19 10:54 pm NE 4.1 5.1----29.83- 59.9-----
2024-06-19 10:48 pm NE 4.1 6.0----29.84- 59.9-----
2024-06-19 10:42 pm NE 5.1 6.0----29.84- 60.1-----
2024-06-19 10:36 pmENE 4.1 5.1----29.84- 60.1-----
2024-06-19 10:30 pmENE 4.1 5.1----29.83- 60.1-----
2024-06-19 10:24 pmENE 4.1 6.0----29.84- 59.9-----
2024-06-19 10:18 pmENE 4.1 5.1----29.83- 59.9-----
2024-06-19 10:12 pmENE 2.9 4.1----29.83- 59.7-----
2024-06-19 10:06 pmENE 2.9 4.1----29.83- 59.7-----
2024-06-19 10:00 pmENE 4.1 4.1----29.84+0.01 59.7-----
2024-06-19 09:54 pm E 2.9 4.1----29.83- 59.7-----
2024-06-19 09:48 pm E 2.9 4.1----29.83- 59.5-----
2024-06-19 09:42 pmENE 2.9 4.1----29.83- 59.5-----
2024-06-19 09:36 pmENE 2.9 2.9----29.83- 59.5-----
2024-06-19 09:30 pm E 1.9 4.1----29.83- 59.4-----
2024-06-19 09:24 pm E 2.9 4.1----29.83- 59.4-----
2024-06-19 09:18 pm E 2.9 2.9----29.83- 59.4-----
2024-06-19 09:12 pmESE 1.9 4.1----29.83- 59.4-----
2024-06-19 09:06 pmESE 2.9 4.1----29.83- 59.5-----
2024-06-19 09:00 pm SE 2.9 4.1----29.83-0.01 59.4-----
2024-06-19 08:54 pm SE 4.1 5.1----29.83- 59.4-----
2024-06-19 08:48 pm SE 5.1 5.1----29.83- 59.5-----
2024-06-19 08:42 pm SE 4.1 6.0----29.83- 59.7-----
2024-06-19 08:36 pm SE 5.1 6.0----29.83- 59.7-----
2024-06-19 08:30 pmESE 4.1 5.1----29.83- 59.9-----
2024-06-19 08:24 pm SE 4.1 5.1----29.83- 60.1-----
2024-06-19 08:18 pm SE 2.9 5.1----29.83- 60.1-----
2024-06-19 08:12 pm SE 2.9 4.1----29.83- 60.1-----
2024-06-19 08:06 pm SE 2.9 5.1----29.83- 60.3-----
2024-06-19 08:00 pmESE 2.9 5.1----29.83-0.02 60.4-----
2024-06-19 07:54 pmSSE 1.9 4.1----29.83- 60.6-----
2024-06-19 07:48 pmSSE 4.1 5.1----29.83- 60.6-----
2024-06-19 07:42 pmSSE 4.1 5.1----29.83- 61.0-----
2024-06-19 07:36 pm S 2.9 4.1----29.83- 61.5-----
2024-06-19 07:30 pm S 2.9 4.1----29.83- 61.3-----
2024-06-19 07:24 pmSSW 4.1 5.1----29.83- 61.3-----
2024-06-19 07:18 pmSSW 5.1 6.0----29.83- 61.5-----
2024-06-19 07:12 pmSSW 6.0 6.0----29.83- 61.7-----
2024-06-19 07:06 pmSSW 6.0 7.0----29.83- 61.7-----
2024-06-19 07:00 pm SW 5.1 6.0----29.83-0.04 62.1-----
2024-06-19 06:54 pm SW 5.1 7.0----29.83- 62.4-----
2024-06-19 06:48 pm SW 6.0 7.0----29.83- 62.1-----
2024-06-19 06:42 pm SW 6.0 8.9----29.83- 62.2-----
2024-06-19 06:36 pm SW 7.0 8.0----29.83- 62.2-----
2024-06-19 06:30 pm SW 6.0 8.0----29.83- 63.1-----
2024-06-19 06:24 pm SW 7.0 8.9----29.83- 62.4-----
2024-06-19 06:18 pm SW 6.0 8.0----29.83- 63.0-----
2024-06-19 06:12 pm SW 7.0 8.9----29.83- 62.4-----
2024-06-19 06:06 pm SW 7.0 8.9----29.83- 62.1-----
2024-06-19 06:00 pm SW 7.0 8.9----29.84-0.04 62.8-----
2024-06-19 05:54 pm SW 8.0 8.9----29.84- 62.4-----
2024-06-19 05:48 pm SW 7.0 9.9----29.84- 62.6-----
2024-06-19 05:42 pm SW 7.0 8.9----29.84- 63.1-----
2024-06-19 05:36 pm SW 8.0 9.9----29.84- 63.1-----
2024-06-19 05:30 pm SW 8.0 11.1----29.84- 63.1-----
2024-06-19 05:24 pm SW 9.9 12.0----29.84- 62.4-----
2024-06-19 05:18 pm SW 8.9 11.1----29.84- 62.2-----
2024-06-19 05:12 pm SW 8.0 11.1----29.85- 63.0-----
2024-06-19 05:06 pm SW 11.1 12.0----29.85- 61.9-----
2024-06-19 05:00 pm SW 9.9 11.1----29.85-0.04 62.2-----
2024-06-19 04:54 pm SW 8.9 12.0----29.85- 62.2-----
2024-06-19 04:48 pm SW 9.9 11.1----29.85- 62.1-----
2024-06-19 04:42 pm SW 8.0 11.1----29.85- 63.0-----
2024-06-19 04:36 pm SW 11.1 13.0----29.85- 61.2-----
2024-06-19 04:30 pm SW 11.1 14.0----29.85- 61.0-----
2024-06-19 04:24 pm SW 12.0 14.0----29.85- 60.8-----
2024-06-19 04:18 pm SW 12.0 15.0----29.85- 61.0-----
2024-06-19 04:12 pm SW 12.0 14.0----29.86- 61.0-----
2024-06-19 04:06 pm SW 9.9 14.0----29.86- 61.7-----
2024-06-19 04:00 pm SW 13.0 14.0----29.86-0.03 61.0-----
2024-06-19 03:54 pm SW 12.0 14.0----29.86- 61.2-----
2024-06-19 03:48 pm SW 12.0 13.0----29.86- 61.7-----
2024-06-19 03:42 pm SW 11.1 13.0----29.86- 62.2-----
2024-06-19 03:36 pm SW 12.0 13.0----29.86- 62.1-----
2024-06-19 03:30 pm SW 11.1 12.0----29.86- 62.6-----
2024-06-19 03:24 pm SW 11.1 12.0----29.87- 62.4-----
2024-06-19 03:18 pm SW 9.9 12.0----29.87- 62.4-----
2024-06-19 03:12 pm SW 8.9 11.1----29.87- 62.8-----
2024-06-19 03:06 pm SW 9.9 12.0----29.88- 62.4-----
2024-06-19 03:00 pm SW 8.9 12.0----29.88-0.02 62.6-----
2024-06-19 02:54 pm SW 8.9 11.1----29.88- 62.6-----